Location: ???????
(55.5931°N, 39.3286°E)
Time: 20:21:26
(UTC+00:00)

Cosmos 1461 - Pass Details

Date: 14 April 2024
Orbit: 499 x 587 km, 65.0° (Epoch: 17 May)

Event Time Altitude Azimuth Distance (km) Brightness Sun altitude
Rises 00:52:31 0° 307° (NW) 2,635 6.1 -11.7°
Reaches altitude 10° 00:54:59 10° 294° (WNW) 1,732 5.1 -11.5°
Maximum altitude 00:58:06 24° 240° (WSW) 1,086 3.7 -11.1°
Drops below altitude 10° 01:01:11 10° 185° (S) 1,704 4.9 -10.8°
Sets 01:03:36 0° 171° (S) 2,581 6.0 -10.5°
